This demonstration page uses our WeatherBlox Daily Observations layout. Learn more.

Left ArrowRight Arrow

Hourly Observations for June 14, 2017

Temp ( °F °C ) Dew Point ( °F °C ) Humidity (%) Winds ( mph kmh ) Pressure ( in mb ) Visibility ( mi km ) Precip ( " mm )
12:59 am 00:59 Partly Cloudy 79 26.1 67 19.4 67 67 SW 8 13 29.96 1014 8 13 0.00 0.00
1:59 am 01:59 Mostly Cloudy 77 25 68 20 74 74 SW 9 15 29.95 1014 8 13 0.00 0.00
2:59 am 02:59 Mostly Cloudy 76 24.4 68 20 77 77 SW 9 15 29.93 1014 8 13 0.00 0.00
3:59 am 03:59 Mostly Cloudy 75 23.9 68 20 79 79 SW 6 9 29.92 1013 8 13 0.00 0.00
4:59 am 04:59 Mostly Cloudy 74 23.3 68 20 82 82 SW 6 9 29.93 1014 7 11 0.00 0.00
5:59 am 05:59 Mostly Cloudy with Haze 73 22.8 67 19.4 81 81 WSW 8 13 29.95 1014 6 10 0.00 0.00
6:59 am 06:59 Mostly Sunny 75 23.9 67 19.4 76 76 SW 7 11 29.96 1015 7 11 0.00 0.00
7:59 am 07:59 Mostly Sunny 76 24.4 67 19.4 74 74 WSW 8 13 29.96 1015 7 11 0.00 0.00
8:59 am 08:59 Mostly Sunny 79 26.1 69 20.6 72 72 WSW 7 11 29.97 1015 7 11 0.00 0.00
9:59 am 09:59 Mostly Sunny 82 27.8 70 21.1 67 67 W 6 9 29.97 1015 7 11 0.00 0.00
10:59 am 10:59 Mostly Sunny 84 28.9 71 21.7 65 65 VRB 6 9 29.97 1015 7 11 0.00 0.00
11:59 am 11:59 Mostly Sunny 86 30 71 21.7 61 61 WNW 9 15 29.96 1015 7 11 0.00 0.00
12:59 pm 12:59 Mostly Sunny 87 30.6 70 21.1 57 57 W 9 15 29.96 1015 8 13 0.00 0.00
1:59 pm 13:59 Mostly Sunny 88 31.1 70 21.1 55 55 VRB 6 9 29.95 1014 8 13 0.00 0.00
2:59 pm 14:59 Mostly Sunny 90 32.2 68 20 48 48 WNW 7 11 29.93 1014 9 14 0.00 0.00
3:59 pm 15:59 Mostly Sunny 91 32.8 67 19.4 45 45 VRB 7 11 29.93 1014 9 14 0.00 0.00
4:59 pm 16:59 Partly Cloudy 91 32.8 71 21.7 52 52 NE 9 15 29.90 1013 8 13 0.00 0.00
5:50 pm 17:50 Partly Cloudy with Thunderstorms 89 31.7 69 20.6 52 52 NE 10 17 29.91 1013 8 13 0.00 0.00
5:59 pm 17:59 Partly Cloudy with Thunderstorms 88 31.1 69 20.6 54 54 NE 12 19 29.90 1013 8 13 0.00 0.00
6:59 pm 18:59 Mostly Cloudy with Thunderstorms 80 26.7 66 18.9 62 62 VRB 5 7 29.94 1014 9 14 0.00 0.00
7:59 pm 19:59 Mostly Cloudy with Thunderstorms 79 26.1 72 22.2 79 79 NE 12 19 29.96 1014 6 10 0.00 0.00
8:06 pm 20:06 Mostly Cloudy with Haze 78 25.6 72 22.2 82 82 ENE 12 19 29.97 1015 5 8 0.00 0.00
8:59 pm 20:59 Mostly Cloudy 77 25 71 21.7 82 82 N 9 15 29.98 1015 7 11 0.00 0.00
9:59 pm 21:59 Mostly Cloudy 76 24.4 69 20.6 79 79 NE 12 19 29.99 1016 7 11 0.00 0.00
10:59 pm 22:59 Mostly Cloudy 75 23.9 69 20.6 82 82 E 8 13 29.98 1015 7 11 0.00 0.00
11:59 pm 23:59 Mostly Cloudy 74 23.3 68 20 82 82 ENE 8 13 29.98 1015 7 11 0.00 0.00

Powered by AerisWeather